Home   Weather   Narowal   Past weeks

Flag for Pakistan Past Weather in Narowal, Pakistan — Yesterday and Last 2 Weeks

Now
52 °F

Fog.


Feels Like: 52 °F
Forecast: 50 / 77 °F
Wind: No wind

Location: Amritsar Airport

Current Time: Dec 5, 2016 at 3:25:51 am

Latest Report: Dec 5, 2016 at 3:00 am


Visibility: 0 mi

Pressure: 30.07 "Hg

Humidity: 100%

Dew Point: 52 °F

Location of NarowalLocation

Past Weather in Narowal — Graph

°F

Narowal Temperature Yesterday

Maximum temperature yesterday: 77 °F (at 1:00 pm)
Minimum temperature yesterday: 48 °F (at 5:30 am)
Average temperature yesterday: 60 °F

High & Low Weather Summary for the Past Weeks

 TemperatureHumidityPressure
High82 °F (Nov 21, 2:00 pm)100% (Nov 20, 1:00 am)30.18 "Hg (Nov 20, 1:00 am)
Low45 °F (Nov 28, 7:00 am)17% (Nov 28, 2:00 pm)29.65 "Hg (Nov 21, 11:30 pm)
Average63 °F70%30.00 "Hg
* Reported Nov 20 1:00 am — Dec 5 1:30 am, Narowal, Weather by CustomWeather, © 2016

Note: Actual official high and low records may vary slightly from our data, if they occured in-between our weather recording intervals... More about our weather records

Advertising

Narowal Weather History for the Previous 24 Hours

Scroll right to see more
 ConditionsComfort  
Time TempWeatherWind HumidityBarometerVisibility
1:30 am
Mon, Dec 5
54 °FFog.No wind100%30.07 "Hg1 mi
1:00 am54 °FFog.No wind100%30.09 "Hg1 mi
12:30 am55 °FFog.No wind100%30.09 "Hg1 mi
12:00 am55 °FFog.No wind100%30.09 "Hg1 mi
11:30 pm
Sun, Dec 4
55 °FFog.No wind100%30.09 "Hg1 mi
11:00 pm55 °FFog.No wind100%30.12 "Hg1 mi
10:30 pm55 °FFog.No wind100%30.12 "Hg1 mi
10:00 pm55 °FFog.No wind100%30.12 "Hg1 mi
9:00 pm57 °FFog.No wind94%30.09 "Hg2 mi
8:30 pm57 °FFog.No wind100%30.09 "Hg2 mi
8:00 pm59 °FFog.No wind100%30.09 "Hg2 mi
7:30 pm59 °FFog.No wind100%30.09 "Hg1 mi
7:00 pm61 °FFog.No wind88%30.09 "Hg1 mi
6:30 pm61 °FHaze.No wind88%30.09 "Hg1 mi
6:00 pm64 °FHaze.No wind68%30.09 "Hg1 mi
5:30 pm66 °FHaze.No wind60%30.07 "Hg1 mi
5:00 pm68 °FHaze.No wind56%30.07 "Hg1 mi
4:30 pm72 °FScattered clouds.No wind50%30.07 "Hg1 mi
4:00 pm73 °FScattered clouds.2 mph47%30.07 "Hg1 mi
3:30 pm75 °FScattered clouds.7 mph41%30.07 "Hg1 mi
3:00 pm77 °FScattered clouds.7 mph36%30.07 "Hg1 mi
2:00 pm75 °FScattered clouds.3 mph41%30.09 "Hg1 mi
1:30 pm77 °FScattered clouds.2 mph36%30.09 "Hg1 mi
1:00 pm77 °FScattered clouds.2 mph34%30.12 "Hg1 mi
12:30 pm75 °FScattered clouds.2 mph36%30.12 "Hg1 mi
12:00 pm73 °FScattered clouds.2 mph44%30.15 "Hg1 mi
11:30 am72 °FScattered clouds.2 mph47%30.18 "Hg1 mi
11:00 am70 °FScattered clouds.No wind57%30.18 "Hg1 mi
10:30 am68 °FFog.No wind69%30.18 "Hg1 mi
10:00 am64 °FFog.No wind88%30.18 "Hg1 mi
9:30 am63 °FFog.No wind100%30.18 "Hg1 mi
9:00 am57 °FFog.1 mph100%30.18 "Hg1 mi
8:30 am54 °FFog.No wind100%30.18 "Hg1 mi
8:00 am52 °FFog.No wind100%30.15 "Hg1 mi
7:30 am50 °FFog.No wind100%30.15 "Hg1 mi
7:00 am50 °FFog.No wind100%30.15 "Hg1 mi
6:30 am50 °FFog.2 mph100%30.12 "Hg1 mi
6:00 am48 °FFog.No wind100%30.12 "Hg1 mi
5:30 am48 °FFog.No wind100%30.12 "Hg1 mi
5:00 am50 °FFog.No wind100%30.12 "Hg1 mi
4:30 am50 °FFog.No wind100%30.12 "Hg1 mi
4:00 am50 °FFog.No wind100%30.12 "Hg1 mi
3:30 am50 °FFog.No wind100%30.12 "Hg1 mi
3:00 am50 °FFog.No wind100%30.12 "Hg1 mi
Weather by CustomWeather, © 2016

See weather overviewHow to use our weather pages